This is the latest recevied weather packets stored in our database for station/object AC5JC-1. If no packets are shown the sender has not sent any weather packets the latest 10 day(s).
| Time | Temp. | Humidity | Pressure | Rain* | Wind** | Luminosity | Snow |
|---|---|---|---|---|---|---|---|
| 1777478734 | 15° C | 84% | 1017.5 hPa | 0 mm | - | 70 W/m² | - |
| 1777477259 | 15° C | 83% | 1016.9 hPa | 0 mm | - | 99 W/m² | - |
| 1777476934 | 15° C | 83% | 1016.8 hPa | 0 mm | - | 89 W/m² | - |
| 1777476034 | 15° C | 83% | 1017 hPa | 0 mm | - | 92 W/m² | - |
| 1777475735 | 15° C | 83% | 1017.1 hPa | 0 mm | - | 102 W/m² | - |
| 1777474834 | 15° C | 84% | 1017.6 hPa | 0 mm | - | 62 W/m² | - |
| 1777473935 | 15° C | 83% | 1017.1 hPa | 0 mm | - | 59 W/m² | - |
| 1777471834 | 15° C | 83% | 1016.7 hPa | 0 mm | - | 46 W/m² | - |
| 1777470334 | 15° C | 82% | 1016.5 hPa | 0 mm | - | 29 W/m² | - |
| 1777469435 | 15° C | 83% | 1016.4 hPa | 0 mm | - | 25 W/m² | - |
| 1777466434 | 15° C | 84% | 1016.3 hPa | 0 mm | - | 8 W/m² | - |
| 1777465534 | 15° C | 84% | 1016 hPa | 0 mm | - | 4 W/m² | - |
| 1777464654 | 15° C | 83% | 1015.7 hPa | 0 mm | - | 2 W/m² | - |
| 1777463734 | 15° C | 83% | 1015.4 hPa | 0 mm | - | 0 W/m² | - |
| 1777463134 | 15° C | 83% | 1015.5 hPa | 0 mm | - | 0 W/m² | - |
| 1777461335 | 15° C | 83% | 1015.1 hPa | 0 mm | - | 0 W/m² | - |
| 1777461034 | 15.56° C | 83% | 1015.2 hPa | 0 mm | - | 0 W/m² | - |
| 1777459564 | 15.56° C | 84% | 1015 hPa | 0 mm | - | 0 W/m² | - |
| 1777459244 | 15.56° C | 83% | 1014.9 hPa | 0 mm | - | 0 W/m² | - |
| 1777457452 | 16.11° C | 85% | 1014.9 hPa | 0 mm | - | 0 W/m² | - |
| 1777455980 | 16.11° C | 85% | 1014.2 hPa | 0 mm | - | 0 W/m² | - |
| 1777455334 | 16.67° C | 85% | 1014.5 hPa | 0 mm | - | 0 W/m² | - |
| 1777455034 | 16.67° C | 86% | 1014.6 hPa | 0 mm | - | 0 W/m² | - |
| 1777453834 | 16.67° C | 86% | 1014.4 hPa | 0 mm | - | 0 W/m² | - |
| 1777453534 | 17.22° C | 86% | 1014.3 hPa | 0 mm | - | 0 W/m² | - |
* Rain latest hour (hover to see other rain measurements)
** Current wind speed in m/s (hover to see current wind gust speed)